Regional Weather Roundup
Issued by NWS

Home | Current Version | Previous Version | Text Only | Print | Product List | Glossary Off
Versions: 1 2 3 4 5 6 7 8 9 10 11 12 13 14 15 16 17 18 19 20 21 22 23 24 25 26 27 28 29 30 31 32 33 34 35 36 37 38 39 40 41 42 43 44 45 46 47 48 49 50

000
ASUS43 KLOT 232303
RWRIL

ILLINOIS REGIONAL WEATHER ROUNDUP
NATIONAL WEATHER SERVICE CHICAGO/ROMEOVILLE IL
500 PM CST TUE JAN 23 2018

NOTE: "FAIR" INDICATES FEW OR NO CLOUDS BELOW 12,000 FEET WITH NO
SIGNIFICANT WEATHER AND/OR OBSTRUCTIONS TO VISIBILITY.

* THESE STATIONS ARE NOT UNDER NWS QUALITY CONTROL. THEY ALSO MAY NOT
  REPORT WEATHER SUCH AS PRECIPITATION OR FOG.

ILZ001-002-007-009-015-016-024-240000-
NORTHWEST ILLINOIS

CITY           SKY/WX    TMP DP  RH WIND       PRES   REMARKS
MOLINE         CLOUDY    29  22  75 W12       30.12R WCI  19
STERLING*      CLOUDY    28  24  85 NW12      30.09R WCI  18
SAVANNA*       CLOUDY    27  22  84 W9        30.11R WCI  17
$$

ILZ003-004-008-010-011-017-018-240000-
NORTH CENTRAL ILLINOIS

CITY           SKY/WX    TMP DP  RH WIND       PRES   REMARKS
ROCKFORD       CLOUDY    28  23  81 NW12      30.08R WCI  18
FREEPORT*      CLOUDY    27  24  87 NW9       30.08R WCI  18
ROCHELLE*      CLOUDY    29  26  88 NW13      30.07R WCI  19
DE KALB*       CLOUDY    29  25  85 NW12      30.05R WCI  20
PERU*          CLOUDY    29  25  84 NW15G21   30.08R WCI  18
$$

ILZ005-006-012>014-019>023-240000-
NORTHEAST ILLINOIS

CITY           SKY/WX    TMP DP  RH WIND       PRES   REMARKS
CHICAGO-OHARE  CLOUDY    30  23  75 NW14      30.03R WCI  19
CHICAGO-MIDWAY CLOUDY    31  25  78 NW10      30.04R WCI  22
AURORA         CLOUDY    30  26  85 NW12      30.05R WCI  20
LANSING*       CLOUDY    30  26  83 NW12G18   30.04R WCI  21
JOLIET*        CLOUDY    33  28  81 NW7       30.06R WCI  27
WAUKEGAN       CLOUDY    28  24  85 NW6       30.02R WCI  22
DUPAGE AIRPORT CLOUDY    29  25  85 NW17      30.04R WCI  17
KANKAKEE*      CLOUDY   N/A N/A N/A NW8       30.06R
WHEELING       CLOUDY    30  24  78 NW12G21   30.05R WCI  20
MORRIS*        CLOUDY    32  27  83 NW14      30.05R WCI  22
NORTHERLY ISL    N/A     30  23  75 NW7         N/A  WCI  23
$$

LMZ740>746-240000-
SOUTHERN LAKE MICHIGAN

STATION/POSITION SKY/WX   TEMP    WIND        PRES    VSBY  WAVE
                          AIR SEA DIR/SP/G                  HT/PER
                          (F)     (DEG/KT/KT) (MB)    (MI)  (FT/S)
HARRISON CRIB              31     320/ 17/ 18   N/A
BURNHAM HARBOR             30     260/  8/ 15   N/A
CALUMET HARBOR             30     300/  9/ 12 1015.9R
BURNS HARBOR               30     320/ 13/ 17 1016.9R
MICHIGAN CITY              30     280/ 20/ 22   N/A
$$

ILZ025>027-034>036-040-047-049-050-058-095>099-240000-
WEST-CENTRAL ILLINOIS

CITY           SKY/WX    TMP DP  RH WIND       PRES   REMARKS
QUINCY         CLOUDY    31  25  78 NW16      30.15R WCI  20
MACOMB*        CLOUDY    31  25  79 NW13      30.16R WCI  21
JACKSONVILLE*  CLOUDY    31  25  76 NW15G22   30.15R WCI  21
PITTSFIELD*    CLOUDY    33  27  77 NW9G16    30.16R WCI  25
$$

ILZ028>032-037-038-041>044-048-051>054-059>061-240000-
CENTRAL ILLINOIS

CITY           SKY/WX    TMP DP  RH WIND       PRES   REMARKS
BLOOMINGTON    CLOUDY    31  27  85 W15       30.09R WCI  20
DECATUR        CLOUDY    32  28  85 W15G26    30.10R WCI  22
PEORIA         CLOUDY    32  24  72 NW13G21   30.11R WCI  22
LACON*         CLOUDY    30  25  82 NW12G20   30.10R WCI  20
LINCOLN*       CLOUDY    33  28  81 W7G20     30.12R WCI  26
SPRINGFIELD    CLOUDY    33  26  75 NW16G25   30.14R WCI  23
TAYLORVILLE    CLOUDY    32  27  83 NW17      30.13R WCI  21
$$

ILZ033-039-045-046-055>057-062-063-240000-
EAST-CENTRAL ILLINOIS

CITY           SKY/WX    TMP DP  RH WIND       PRES   REMARKS
CHAMPAIGN      CLOUDY    32  28  85 NW15      30.07R WCI  22
DANVILLE*      CLOUDY    31  27  84 NW13      30.03R WCI  21
RANTOUL*       CLOUDY    33  30  90 NW15G22   30.07R WCI  23
MATTOON        CLOUDY    32  28  85 NW17      30.09R WCI  21
$$

ILZ079-100>102-240000-
SOUTHWEST ILLINOIS

CITY           SKY/WX    TMP DP  RH WIND       PRES   REMARKS
ALTON          CLOUDY    34  28  80 W16       30.16R WCI  23
BELLEVILLE     CLOUDY    37  30  75 NW21      30.13R WCI  27
CAHOKIA*       CLOUDY    36  27  69 W15G22    30.17R WCI  27
SPARTA*        CLOUDY    36  30  78 W8        30.17R WCI  30
$$

ILZ064>066-069>071-074>076-080>082-084>086-088>090-092>094-240000-
SOUTH-CENTRAL ILLINOIS

CITY           SKY/WX    TMP DP  RH WIND       PRES   REMARKS
CARBONDALE     CLOUDY    37  28  70 NW6       30.17R WCI  32
CAIRO*         CLOUDY    39  31  72 W3        30.18R
EFFINGHAM*     CLOUDY    33  30  88 W10       30.14R WCI  25
MARION         CLOUDY    36  27  69 W9        30.18R WCI  29
MT. VERNON     CLOUDY    35  27  72 W5        30.16R WCI  31
CENTRALIA*     CLOUDY    35  30  80 NW5G16    30.14R WCI  31
SALEM*         CLOUDY    35  28  76 NW10G18   30.14R WCI  27
METROPOLIS*    CLOUDY    39  28  66 NW6       30.18R WCI  34
$$

ILZ067-068-072-073-078-083-087-091-240000-
SOUTHEAST ILLINOIS

CITY           SKY/WX    TMP DP  RH WIND       PRES   REMARKS
LAWRENCEVILLE  CLOUDY    34  27  75 W15       30.12R WCI  24
FLORA*         CLOUDY    35  29  80 NW12G21   30.14R WCI  27
FAIRFIELD*     CLOUDY    35  28  75 NW7       30.14R WCI  29
HARRISBURG*    CLOUDY    36  28  70 NW10      30.17R WCI  29
ROBINSON*      CLOUDY    32  29  88 W14       30.12R WCI  22
CARMI*         CLOUDY    35  29  79 W15       30.15R WCI  25
$$

ABBREVIATIONS USED IN REMARKS
   TC - TEMPERATURE IN CELSIUS
  WCI - WIND CHILL INDEX
   HX - HEAT INDEX
  VSB - VISIBILITY
$$





USA.gov is the U.S. government's official web portal to all federal, state and local government web resources and services.